Flag for Canada Weather past 2 weeks in Pickering, Ontario, Canada

Now
66 °F

Clear.


Feels Like: 66 °F
Forecast: 62 / 83 °F
Wind: No wind

Location: Toronto Buttonville

Current Time: Aug 1, 2015 at 11:12:21 PM

Latest Report: Aug 1, 2015 at 10:00 PM


Visibility: 15 mi

Pressure: 29.84 "Hg

Humidity: 78%

Dew point: 59 °F

Location of PickeringLocation

Historic Weather in Pickering — Graph

°F

Pickering temperature yesterday

Maximum temperature yesterday: 84 °F (at 2:00 PM)
Minimum temperature yesterday: 63 °F (at 5:00 AM)
Average temperature yesterday: 74 °F

Past Weeks' High & Low Weather Summary

 TemperatureHumidityPressure
High91 °F (Jul 27, 4:00 PM)100% (Jul 18, 4:48 AM)30.03 "Hg (Jul 18, 4:48 AM)
Low55 °F (Jul 23, 6:00 AM)31% (Jul 30, 6:00 PM)29.61 "Hg (Jul 21, 3:00 AM)
Average75 °F59%29.86 "Hg
* Reported Jul 17 10:00 PM — Aug 1 10:00 PM, Pickering, Weather by CustomWeather, © 2015

Note: Actual official high and low records may vary slightly from our data, if they occured in-between our weather recording intervals... More about our weather records

Advertising

Pickering weather history for previous 24 hours

 ConditionsComfort  
Time TempWeatherWind HumidityBarometerVisibility
10:00 PM
Sat, Aug 1
66 °FClear.No wind78%29.84 "Hg15 mi
9:00 PM68 °FPassing clouds.2 mph73%29.83 "Hg15 mi
8:00 PM70 °FScattered clouds.6 mph64%29.82 "Hg15 mi
7:00 PM73 °FPartly sunny.8 mph69%29.80 "Hg15 mi
6:00 PM73 °FPartly sunny.8 mph61%29.80 "Hg15 mi
5:00 PM70 °FThunderstorms. Partly sunny.3 mph69%29.81 "Hg15 mi
4:53 PM70 °FPartly sunny.5 mph69%29.81 "Hg15 mi
4:00 PM75 °FPartly sunny.10 mph50%29.80 "Hg15 mi
3:00 PM72 °FPartly sunny.10 mph61%29.82 "Hg15 mi
2:00 PM75 °FPartly sunny.12 mph44%29.82 "Hg15 mi
1:00 PM75 °FPartly sunny.10 mph47%29.84 "Hg15 mi
12:00 PM73 °FPartly sunny.12 mph47%29.84 "Hg15 mi
11:00 AM73 °FScattered clouds.8 mph53%29.84 "Hg15 mi
10:00 AM70 °FPassing clouds.10 mph57%29.84 "Hg15 mi
9:00 AM68 °FPassing clouds.18 mph60%29.84 "Hg15 mi
8:00 AM64 °FPassing clouds.7 mph73%29.84 "Hg15 mi
7:00 AM63 °FPassing clouds.6 mph73%29.82 "Hg15 mi
6:00 AM63 °FPassing clouds.6 mph73%29.81 "Hg15 mi
5:00 AM63 °FPassing clouds.5 mph77%29.80 "Hg15 mi
4:00 AM64 °FClear.7 mph73%29.79 "Hg15 mi
3:00 AM66 °FClear.6 mph68%29.79 "Hg15 mi
2:00 AM68 °FPassing clouds.7 mph60%29.78 "Hg15 mi
1:00 AM68 °FPassing clouds.5 mph60%29.78 "Hg15 mi
12:00 AM70 °FPassing clouds.8 mph57%29.78 "Hg15 mi
11:00 PM
Fri, Jul 31
73 °FMostly cloudy.7 mph61%29.79 "Hg12 mi
Weather by CustomWeather, © 2015

See weather overviewHow to use our weather pages